Location: Notre Dame Regional High School Observatory
(37.3056°N, 89.6097°W)
Time: 17:05:19
(UTC-06:00)

Okean 2 Rocket - Visible Passes

Search period start: 20 November 2017 00:00
Search period end: 30 November 2017 00:00
Orbit: 618 x 641 km, 82.5° (Epoch: 20 November)

Date Brightness Start Highest point End Pass type
(mag) Time Alt. Az. Time Alt. Az. Time Alt. Az.
20 Nov 4.7 17:30:52 10° NE 17:33:16 14° ENE 17:35:40 10° ESE visible
20 Nov 4.1 19:07:15 10° NNW 19:11:36 46° W 19:15:54 10° SSW visible
21 Nov 4.0 17:50:12 10° NNE 17:54:06 28° ENE 17:57:58 10° SE visible
21 Nov 5.4 19:28:29 10° NW 19:32:00 22° W 19:35:29 10° SW visible
22 Nov 3.1 18:10:20 10° N 18:14:49 57° E 18:19:15 10° SSE visible
22 Nov 6.4 19:51:10 10° WNW 19:52:17 11° W 19:53:23 10° W visible
23 Nov 3.4 18:30:53 10° NNW 18:35:23 67° W 18:39:51 10° S visible
24 Nov 4.4 17:14:23 10° NNE 17:17:45 20° ENE 17:21:05 10° ESE visible
24 Nov 4.9 18:51:51 10° NNW 18:55:51 31° W 18:59:49 10° SSW visible
25 Nov 6.2 05:46:24 10° ESE 05:48:47 14° E 05:51:12 10° NE visible
25 Nov 3.5 17:34:14 10° N 17:38:31 40° E 17:42:45 10° SSE visible
25 Nov 6.1 19:13:32 10° NW 19:16:11 16° W 19:18:49 10° WSW visible
26 Nov 5.3 06:05:17 10° SSE 06:09:07 29° E 06:13:00 10° NNE visible
26 Nov 3.0 17:54:36 10° N 17:59:09 86° E 18:03:39 10° S visible
27 Nov 4.3 18:15:21 10° NNW 18:19:40 44° W 18:23:56 10° SSW visible
28 Nov 5.7 18:36:37 10° NW 18:40:04 22° W 18:43:29 10° SW visible
29 Nov 5.8 05:29:38 10° SE 05:32:58 21° E 05:36:20 10° NE visible
29 Nov 3.2 17:18:24 10° N 17:22:53 60° E 17:27:20 10° SSE visible
29 Nov 6.5 18:59:40 10° WNW 19:00:20 10° W 19:01:01 10° W visible
